Year,Month,Day,Hour,Minute,Value (Times are PST for temperature in C)
2006,04,28,00,00,7.60
2006,04,28,00,01,7.60
2006,04,28,00,02,7.60
2006,04,28,00,03,7.60
2006,04,28,00,04,7.60
2006,04,28,00,05,7.60
2006,04,28,00,06,7.60
2006,04,28,00,07,7.60
2006,04,28,00,08,7.60
2006,04,28,00,09,7.60
2006,04,28,00,10,7.60
2006,04,28,00,11,7.60
2006,04,28,00,12,7.60
2006,04,28,00,13,7.70
2006,04,28,00,14,7.60
2006,04,28,00,15,7.70
2006,04,28,00,16,7.70
2006,04,28,00,17,7.70
2006,04,28,00,18,7.60
2006,04,28,00,19,7.60
2006,04,28,00,20,7.60
2006,04,28,00,21,7.60
2006,04,28,00,22,7.60
2006,04,28,00,23,7.60
2006,04,28,00,24,7.60
2006,04,28,00,25,7.60
2006,04,28,00,26,7.50
2006,04,28,00,27,7.50
2006,04,28,00,28,7.50
2006,04,28,00,29,7.50
2006,04,28,00,30,7.50
2006,04,28,00,31,7.50
2006,04,28,00,32,7.50
2006,04,28,00,33,7.40
2006,04,28,00,34,7.40
2006,04,28,00,35,7.40
2006,04,28,00,36,7.40
2006,04,28,00,37,7.40
2006,04,28,00,38,7.40
2006,04,28,00,39,7.40
2006,04,28,00,40,7.40
2006,04,28,00,41,7.40
2006,04,28,00,42,7.40
2006,04,28,00,43,7.40
2006,04,28,00,44,7.40
2006,04,28,00,45,7.40
2006,04,28,00,46,7.40
2006,04,28,00,47,7.40
2006,04,28,00,48,7.40
2006,04,28,00,49,7.40
2006,04,28,00,50,7.40
2006,04,28,00,51,7.40
2006,04,28,00,52,7.30
2006,04,28,00,53,7.30
2006,04,28,00,54,7.30
2006,04,28,00,55,7.30
2006,04,28,00,56,7.30
2006,04,28,00,57,7.30
2006,04,28,00,58,7.30
2006,04,28,00,59,7.30
2006,04,28,01,00,7.30
2006,04,28,01,01,7.30
2006,04,28,01,02,7.30
2006,04,28,01,03,7.30
2006,04,28,01,04,7.30
2006,04,28,01,05,7.30
2006,04,28,01,06,7.30
2006,04,28,01,07,7.30
2006,04,28,01,08,7.30
2006,04,28,01,09,7.30
2006,04,28,01,10,7.30
2006,04,28,01,11,7.30
2006,04,28,01,12,7.30
2006,04,28,01,13,7.30
2006,04,28,01,14,7.30
2006,04,28,01,15,7.30
2006,04,28,01,16,7.30
2006,04,28,01,17,7.20
2006,04,28,01,18,7.20
2006,04,28,01,19,7.10
2006,04,28,01,20,7.00
2006,04,28,01,21,7.00
2006,04,28,01,22,6.90
2006,04,28,01,23,6.90
2006,04,28,01,24,6.80
2006,04,28,01,25,6.80
2006,04,28,01,26,6.70
2006,04,28,01,27,6.70
2006,04,28,01,28,6.70
2006,04,28,01,29,6.60
2006,04,28,01,30,6.60
2006,04,28,01,31,6.60
2006,04,28,01,32,6.60
2006,04,28,01,33,6.60
2006,04,28,01,34,6.60
2006,04,28,01,35,6.60
2006,04,28,01,36,6.60
2006,04,28,01,37,6.70
2006,04,28,01,38,6.70
2006,04,28,01,39,6.80
2006,04,28,01,40,6.80
2006,04,28,01,41,6.80
2006,04,28,01,42,6.80
2006,04,28,01,43,6.80
2006,04,28,01,44,6.80
2006,04,28,01,45,6.80
2006,04,28,01,46,6.80
2006,04,28,01,47,6.80
2006,04,28,01,48,6.80
2006,04,28,01,49,6.80
2006,04,28,01,50,6.80
2006,04,28,01,51,6.80
2006,04,28,01,52,6.90
2006,04,28,01,53,6.90
2006,04,28,01,54,6.90
2006,04,28,01,55,6.90
2006,04,28,01,56,6.90
2006,04,28,01,57,6.80
2006,04,28,01,58,6.80
2006,04,28,01,59,6.80
2006,04,28,02,00,6.80
2006,04,28,02,01,6.70
2006,04,28,02,02,6.70
2006,04,28,02,03,6.70
2006,04,28,02,04,6.60
2006,04,28,02,05,6.60
2006,04,28,02,06,6.60
2006,04,28,02,07,6.60
2006,04,28,02,08,6.70
2006,04,28,02,09,6.70
2006,04,28,02,10,6.70
2006,04,28,02,11,6.70
2006,04,28,02,12,6.70
2006,04,28,02,13,6.80
2006,04,28,02,14,6.80
2006,04,28,02,15,6.80
2006,04,28,02,16,6.80
2006,04,28,02,17,6.80
2006,04,28,02,18,6.80
2006,04,28,02,19,6.80
2006,04,28,02,20,6.90
2006,04,28,02,21,6.90
2006,04,28,02,22,6.90
2006,04,28,02,23,6.90
2006,04,28,02,24,6.80
2006,04,28,02,25,6.80
2006,04,28,02,26,6.70
2006,04,28,02,27,6.60
2006,04,28,02,28,6.60
2006,04,28,02,29,6.50
2006,04,28,02,30,6.40
2006,04,28,02,31,6.40
2006,04,28,02,32,6.40
2006,04,28,02,33,6.40
2006,04,28,02,34,6.40
2006,04,28,02,35,6.40
2006,04,28,02,36,6.30
2006,04,28,02,37,6.30
2006,04,28,02,38,6.30
2006,04,28,02,39,6.40
2006,04,28,02,40,6.40
2006,04,28,02,41,6.40
2006,04,28,02,42,6.40
2006,04,28,02,43,6.40
2006,04,28,02,44,6.40
2006,04,28,02,45,6.40
2006,04,28,02,46,6.30
2006,04,28,02,47,6.30
2006,04,28,02,48,6.30
2006,04,28,02,49,6.30
2006,04,28,02,50,6.30
2006,04,28,02,51,6.30
2006,04,28,02,52,6.30
2006,04,28,02,53,6.30
2006,04,28,02,54,6.30
2006,04,28,02,55,6.30
2006,04,28,02,56,6.30
2006,04,28,02,57,6.30
2006,04,28,02,58,6.30
2006,04,28,02,59,6.40
2006,04,28,03,00,6.40
2006,04,28,03,01,6.40
2006,04,28,03,02,6.40
2006,04,28,03,03,6.40
2006,04,28,03,04,6.40
2006,04,28,03,05,6.40
2006,04,28,03,06,6.40
2006,04,28,03,07,6.40
2006,04,28,03,08,6.30
2006,04,28,03,09,6.30
2006,04,28,03,10,6.30
2006,04,28,03,11,6.30
2006,04,28,03,12,6.30
2006,04,28,03,13,6.30
2006,04,28,03,14,6.30
2006,04,28,03,15,6.30
2006,04,28,03,16,6.30
2006,04,28,03,17,6.30
2006,04,28,03,18,6.30
2006,04,28,03,19,6.30
2006,04,28,03,20,6.30
2006,04,28,03,21,6.30
2006,04,28,03,22,6.30
2006,04,28,03,23,6.30
2006,04,28,03,24,6.30
2006,04,28,03,25,6.30
2006,04,28,03,26,6.30
2006,04,28,03,27,6.30
2006,04,28,03,28,6.30
2006,04,28,03,29,6.30
2006,04,28,03,30,6.30
2006,04,28,03,31,6.30
2006,04,28,03,32,6.30
2006,04,28,03,33,6.30
2006,04,28,03,34,6.30
2006,04,28,03,35,6.30
2006,04,28,03,36,6.30
2006,04,28,03,37,6.30
2006,04,28,03,38,6.40
2006,04,28,03,39,6.40
2006,04,28,03,40,6.40
2006,04,28,03,41,6.40
2006,04,28,03,42,6.40
2006,04,28,03,43,6.40
2006,04,28,03,44,6.40
2006,04,28,03,45,6.40
2006,04,28,03,46,6.40
2006,04,28,03,47,6.40
2006,04,28,03,48,6.40
2006,04,28,03,49,6.40
2006,04,28,03,50,6.40
2006,04,28,03,51,6.40
2006,04,28,03,52,6.40
2006,04,28,03,53,6.50
2006,04,28,03,54,6.60
2006,04,28,03,55,6.60
2006,04,28,03,56,6.60
2006,04,28,03,57,6.70
2006,04,28,03,58,6.70
2006,04,28,03,59,6.70
2006,04,28,04,00,6.70
2006,04,28,04,01,6.70
2006,04,28,04,02,6.70
2006,04,28,04,03,6.70
2006,04,28,04,04,6.70
2006,04,28,04,05,6.70
2006,04,28,04,06,6.70
2006,04,28,04,07,6.70
2006,04,28,04,08,6.70
2006,04,28,04,09,6.70
2006,04,28,04,10,6.70
2006,04,28,04,11,6.70
2006,04,28,04,12,6.70
2006,04,28,04,13,6.70
2006,04,28,04,14,6.70
2006,04,28,04,15,6.70
2006,04,28,04,16,6.70
2006,04,28,04,17,6.70
2006,04,28,04,18,6.80
2006,04,28,04,19,6.80
2006,04,28,04,20,6.80
2006,04,28,04,21,6.80
2006,04,28,04,22,6.80
2006,04,28,04,23,6.80
2006,04,28,04,24,6.80
2006,04,28,04,25,6.80
2006,04,28,04,26,6.80
2006,04,28,04,27,6.80
2006,04,28,04,28,6.80
2006,04,28,04,29,6.80
2006,04,28,04,30,6.80
2006,04,28,04,31,6.80
2006,04,28,04,32,6.80
2006,04,28,04,33,6.80
2006,04,28,04,34,6.80
2006,04,28,04,35,6.80
2006,04,28,04,36,6.80
2006,04,28,04,37,6.80
2006,04,28,04,38,6.80
2006,04,28,04,39,6.80
2006,04,28,04,40,6.80
2006,04,28,04,41,6.80
2006,04,28,04,42,6.80
2006,04,28,04,43,6.80
2006,04,28,04,44,6.80
2006,04,28,04,45,6.90
2006,04,28,04,46,6.90
2006,04,28,04,47,6.90
2006,04,28,04,48,6.90
2006,04,28,04,49,6.90
2006,04,28,04,50,6.90
2006,04,28,04,51,6.90
2006,04,28,04,52,7.00
2006,04,28,04,53,7.00
2006,04,28,04,54,7.00
2006,04,28,04,55,7.00
2006,04,28,04,56,7.00
2006,04,28,04,57,7.00
2006,04,28,04,58,7.00
2006,04,28,04,59,7.00
2006,04,28,05,00,7.00
2006,04,28,05,01,7.00
2006,04,28,05,02,7.00
2006,04,28,05,03,7.00
2006,04,28,05,04,7.00
2006,04,28,05,05,7.00
2006,04,28,05,06,7.00
2006,04,28,05,07,7.00
2006,04,28,05,08,7.10
2006,04,28,05,09,7.10
2006,04,28,05,10,7.10
2006,04,28,05,11,7.10
2006,04,28,05,12,7.10
2006,04,28,05,13,7.10
2006,04,28,05,14,7.10
2006,04,28,05,15,7.10
2006,04,28,05,16,7.00
2006,04,28,05,17,7.00
2006,04,28,05,18,7.00
2006,04,28,05,19,7.00
2006,04,28,05,20,7.00
2006,04,28,05,21,6.90
2006,04,28,05,22,6.90
2006,04,28,05,23,6.90
2006,04,28,05,24,6.80
2006,04,28,05,25,6.80
2006,04,28,05,26,6.80
2006,04,28,05,27,6.80
2006,04,28,05,28,6.80
2006,04,28,05,29,6.80
2006,04,28,05,30,6.80
2006,04,28,05,31,6.70
2006,04,28,05,32,6.70
2006,04,28,05,33,6.70
2006,04,28,05,34,6.70
2006,04,28,05,35,6.70
2006,04,28,05,36,6.60
2006,04,28,05,37,6.60
2006,04,28,05,38,6.60
2006,04,28,05,39,6.60
2006,04,28,05,40,6.60
2006,04,28,05,41,6.60
2006,04,28,05,42,6.60
2006,04,28,05,43,6.60
2006,04,28,05,44,6.60
2006,04,28,05,45,6.60
2006,04,28,05,46,6.60
2006,04,28,05,47,6.60
2006,04,28,05,48,6.60
2006,04,28,05,49,6.60
2006,04,28,05,50,6.60
2006,04,28,05,51,6.70
2006,04,28,05,52,6.70
2006,04,28,05,53,6.70
2006,04,28,05,54,6.70
2006,04,28,05,55,6.70
2006,04,28,05,56,6.70
2006,04,28,05,57,6.60
2006,04,28,05,58,6.60
2006,04,28,05,59,6.60
2006,04,28,06,00,6.60
2006,04,28,06,01,6.60
2006,04,28,06,02,6.60
2006,04,28,06,03,6.60
2006,04,28,06,04,6.60
2006,04,28,06,05,6.60
2006,04,28,06,06,6.60
2006,04,28,06,07,6.60
2006,04,28,06,08,6.60
2006,04,28,06,09,6.60
2006,04,28,06,10,6.50
2006,04,28,06,11,6.40
2006,04,28,06,12,6.40
2006,04,28,06,13,6.40
2006,04,28,06,14,6.40
2006,04,28,06,15,6.40
2006,04,28,06,16,6.40
2006,04,28,06,17,6.40
2006,04,28,06,18,6.40
2006,04,28,06,19,6.40
2006,04,28,06,20,6.40
2006,04,28,06,21,6.40
2006,04,28,06,22,6.40
2006,04,28,06,23,6.40
2006,04,28,06,24,6.40
2006,04,28,06,25,6.40
2006,04,28,06,26,6.40
2006,04,28,06,27,6.40
2006,04,28,06,28,6.40
2006,04,28,06,29,6.40
2006,04,28,06,30,6.40
2006,04,28,06,31,6.50
2006,04,28,06,32,6.60
2006,04,28,06,33,6.60
2006,04,28,06,34,6.60
2006,04,28,06,35,6.60
2006,04,28,06,36,6.60
2006,04,28,06,37,6.70
2006,04,28,06,38,6.70
2006,04,28,06,39,6.70
2006,04,28,06,40,6.70
2006,04,28,06,41,6.80
2006,04,28,06,42,6.80
2006,04,28,06,43,6.80
2006,04,28,06,44,6.80
2006,04,28,06,45,6.80
2006,04,28,06,46,6.90
2006,04,28,06,47,6.90
2006,04,28,06,48,7.00
2006,04,28,06,49,7.00
2006,04,28,06,50,7.00
2006,04,28,06,51,7.10
2006,04,28,06,52,7.10
2006,04,28,06,53,7.10
2006,04,28,06,54,7.10
2006,04,28,06,55,7.20
2006,04,28,06,56,7.20
2006,04,28,06,57,7.20
2006,04,28,06,58,7.30
2006,04,28,06,59,7.30
2006,04,28,07,00,7.40
2006,04,28,07,01,7.50
2006,04,28,07,02,7.60
2006,04,28,07,03,7.60
2006,04,28,07,04,7.70
2006,04,28,07,05,7.80
2006,04,28,07,06,7.80
2006,04,28,07,07,7.90
2006,04,28,07,08,8.00
2006,04,28,07,09,8.00
2006,04,28,07,10,8.10
2006,04,28,07,11,8.20
2006,04,28,07,12,8.30
2006,04,28,07,13,8.40
2006,04,28,07,14,8.60
2006,04,28,07,15,8.70
2006,04,28,07,16,8.80
2006,04,28,07,17,8.90
2006,04,28,07,18,9.00
2006,04,28,07,19,9.10
2006,04,28,07,20,9.20
2006,04,28,07,21,9.20
2006,04,28,07,22,9.30
2006,04,28,07,23,9.40
2006,04,28,07,24,9.40
2006,04,28,07,25,9.50
2006,04,28,07,26,9.50
2006,04,28,07,27,9.50
2006,04,28,07,28,9.50
2006,04,28,07,29,9.50
2006,04,28,07,30,9.50
2006,04,28,07,31,9.50
2006,04,28,07,32,9.60
2006,04,28,07,33,9.60
2006,04,28,07,34,9.60
2006,04,28,07,35,9.60
2006,04,28,07,36,9.70
2006,04,28,07,37,9.70
2006,04,28,07,38,9.70
2006,04,28,07,39,9.70
2006,04,28,07,40,9.70
2006,04,28,07,41,9.80
2006,04,28,07,42,9.80
2006,04,28,07,43,9.80
2006,04,28,07,44,9.90
2006,04,28,07,45,9.90
2006,04,28,07,46,10.00
2006,04,28,07,47,10.10
2006,04,28,07,48,10.10
2006,04,28,07,49,10.20
2006,04,28,07,50,10.30
2006,04,28,07,51,10.40
2006,04,28,07,52,10.40
2006,04,28,07,53,10.50
2006,04,28,07,54,10.60
2006,04,28,07,55,10.60
2006,04,28,07,56,10.70
2006,04,28,07,57,10.80
2006,04,28,07,58,10.80
2006,04,28,07,59,10.90
2006,04,28,08,00,10.90
2006,04,28,08,01,11.00
2006,04,28,08,02,11.10
2006,04,28,08,03,11.10
2006,04,28,08,04,11.10
2006,04,28,08,05,11.20
2006,04,28,08,06,11.30
2006,04,28,08,07,11.30
2006,04,28,08,08,11.40
2006,04,28,08,09,11.40
2006,04,28,08,10,11.40
2006,04,28,08,11,11.40
2006,04,28,08,12,11.40
2006,04,28,08,13,11.30
2006,04,28,08,14,11.30
2006,04,28,08,15,11.20
2006,04,28,08,16,11.20
2006,04,28,08,17,11.10
2006,04,28,08,18,11.10
2006,04,28,08,19,11.10
2006,04,28,08,20,11.00
2006,04,28,08,21,10.90
2006,04,28,08,22,10.90
2006,04,28,08,23,10.90
2006,04,28,08,24,10.90
2006,04,28,08,25,10.90
2006,04,28,08,26,11.00
2006,04,28,08,27,11.10
2006,04,28,08,28,11.10
2006,04,28,08,29,11.20
2006,04,28,08,30,11.20
2006,04,28,08,31,11.30
2006,04,28,08,32,11.30
2006,04,28,08,33,11.30
2006,04,28,08,34,11.40
2006,04,28,08,35,11.40
2006,04,28,08,36,11.40
2006,04,28,08,37,11.40
2006,04,28,08,38,11.40
2006,04,28,08,39,11.40
2006,04,28,08,40,11.40
2006,04,28,08,41,11.40
2006,04,28,08,42,11.40
2006,04,28,08,43,11.40
2006,04,28,08,44,11.40
2006,04,28,08,45,11.40
2006,04,28,08,46,11.40
2006,04,28,08,47,11.50
2006,04,28,08,48,11.60
2006,04,28,08,49,11.60
2006,04,28,08,50,11.60
2006,04,28,08,51,11.60
2006,04,28,08,52,11.70
2006,04,28,08,53,11.80
2006,04,28,08,54,11.80
2006,04,28,08,55,11.90
2006,04,28,08,56,12.00
2006,04,28,08,57,12.00
2006,04,28,08,58,12.00
2006,04,28,08,59,12.00
2006,04,28,09,00,12.00
2006,04,28,09,01,12.00
2006,04,28,09,02,12.10
2006,04,28,09,03,12.10
2006,04,28,09,04,12.20
2006,04,28,09,05,12.20
2006,04,28,09,06,12.30
2006,04,28,09,07,12.30
2006,04,28,09,08,12.30
2006,04,28,09,09,12.40
2006,04,28,09,10,12.40
2006,04,28,09,11,12.40
2006,04,28,09,12,12.30
2006,04,28,09,13,12.40
2006,04,28,09,14,12.40
2006,04,28,09,15,12.50
2006,04,28,09,16,12.60
2006,04,28,09,17,12.70
2006,04,28,09,18,12.80
2006,04,28,09,19,12.80
2006,04,28,09,20,12.80
2006,04,28,09,21,12.90
2006,04,28,09,22,12.90
2006,04,28,09,23,13.00
2006,04,28,09,24,13.00
2006,04,28,09,25,13.10
2006,04,28,09,26,13.10
2006,04,28,09,27,13.00
2006,04,28,09,28,13.00
2006,04,28,09,29,12.90
2006,04,28,09,30,12.80
2006,04,28,09,31,12.80
2006,04,28,09,32,12.80
2006,04,28,09,33,12.80
2006,04,28,09,34,12.80
2006,04,28,09,35,13.00
2006,04,28,09,36,13.00
2006,04,28,09,37,13.10
2006,04,28,09,38,13.10
2006,04,28,09,39,13.10
2006,04,28,09,40,13.00
2006,04,28,09,41,12.90
2006,04,28,09,42,12.80
2006,04,28,09,43,12.80
2006,04,28,09,44,12.80
2006,04,28,09,45,12.70
2006,04,28,09,46,12.70
2006,04,28,09,47,12.80
2006,04,28,09,48,12.80
2006,04,28,09,49,12.70
2006,04,28,09,50,12.70
2006,04,28,09,51,12.70
2006,04,28,09,52,12.70
2006,04,28,09,53,12.70
2006,04,28,09,54,12.70
2006,04,28,09,55,12.80
2006,04,28,09,56,12.80
2006,04,28,09,57,12.90
2006,04,28,09,58,12.90
2006,04,28,09,59,12.90
2006,04,28,10,00,12.90
2006,04,28,10,01,12.90
2006,04,28,10,02,12.90
2006,04,28,10,03,13.00
2006,04,28,10,04,13.00
2006,04,28,10,05,13.00
2006,04,28,10,06,13.00
2006,04,28,10,07,13.00
2006,04,28,10,08,13.10
2006,04,28,10,09,13.10
2006,04,28,10,10,13.10
2006,04,28,10,11,13.10
2006,04,28,10,12,13.10
2006,04,28,10,13,13.10
2006,04,28,10,14,13.10
2006,04,28,10,15,13.10
2006,04,28,10,16,13.00
2006,04,28,10,17,12.90
2006,04,28,10,18,12.90
2006,04,28,10,19,12.90
2006,04,28,10,20,12.90
2006,04,28,10,21,13.00
2006,04,28,10,22,12.90
2006,04,28,10,23,12.90
2006,04,28,10,24,12.90
2006,04,28,10,25,12.80
2006,04,28,10,26,12.80
2006,04,28,10,27,12.80
2006,04,28,10,28,12.80
2006,04,28,10,29,12.80
2006,04,28,10,30,12.80
2006,04,28,10,31,12.80
2006,04,28,10,32,12.80
2006,04,28,10,33,12.80
2006,04,28,10,34,12.80
2006,04,28,10,35,12.90
2006,04,28,10,36,13.00
2006,04,28,10,37,13.10
2006,04,28,10,38,13.20
2006,04,28,10,39,13.30
2006,04,28,10,40,13.30
2006,04,28,10,41,13.30
2006,04,28,10,42,13.30
2006,04,28,10,43,13.30
2006,04,28,10,44,13.20
2006,04,28,10,45,13.10
2006,04,28,10,46,13.10
2006,04,28,10,47,13.10
2006,04,28,10,48,13.10
2006,04,28,10,49,13.20
2006,04,28,10,50,13.20
2006,04,28,10,51,13.30
2006,04,28,10,52,13.30
2006,04,28,10,53,13.30
2006,04,28,10,54,13.30
2006,04,28,10,55,13.30
2006,04,28,10,56,13.30
2006,04,28,10,57,13.30
2006,04,28,10,58,13.30
2006,04,28,10,59,13.30
2006,04,28,11,00,13.30
2006,04,28,11,01,13.30
2006,04,28,11,02,13.30
2006,04,28,11,03,13.40
2006,04,28,11,04,13.40
2006,04,28,11,05,13.50
2006,04,28,11,06,13.50
2006,04,28,11,07,13.60
2006,04,28,11,08,13.70
2006,04,28,11,09,13.90
2006,04,28,11,10,14.00
2006,04,28,11,11,14.00
2006,04,28,11,12,14.10
2006,04,28,11,13,14.10
2006,04,28,11,14,14.20
2006,04,28,11,15,14.20
2006,04,28,11,16,14.20
2006,04,28,11,17,14.20
2006,04,28,11,18,14.30
2006,04,28,11,19,14.40
2006,04,28,11,20,14.50
2006,04,28,11,21,14.60
2006,04,28,11,22,14.70
2006,04,28,11,23,14.80
2006,04,28,11,24,14.90
2006,04,28,11,25,15.00
2006,04,28,11,26,15.00
2006,04,28,11,27,15.10
2006,04,28,11,28,15.00
2006,04,28,11,29,15.00
2006,04,28,11,30,14.90
2006,04,28,11,31,14.90
2006,04,28,11,32,14.80
2006,04,28,11,33,14.70
2006,04,28,11,34,14.60
2006,04,28,11,35,14.60
2006,04,28,11,36,14.60
2006,04,28,11,37,14.60
2006,04,28,11,38,14.70
2006,04,28,11,39,14.70
2006,04,28,11,40,14.70
2006,04,28,11,41,14.70
2006,04,28,11,42,14.70
2006,04,28,11,43,14.60
2006,04,28,11,44,14.70
2006,04,28,11,45,14.70
2006,04,28,11,46,14.70
2006,04,28,11,47,14.70
2006,04,28,11,48,14.60
2006,04,28,11,49,14.60
2006,04,28,11,50,14.60
2006,04,28,11,51,14.70
2006,04,28,11,52,14.60
2006,04,28,11,53,14.60
2006,04,28,11,54,14.60
2006,04,28,11,55,14.60
2006,04,28,11,56,14.60
2006,04,28,11,57,14.70
2006,04,28,11,58,14.70
2006,04,28,11,59,14.70
2006,04,28,12,00,14.70
2006,04,28,12,01,14.80
2006,04,28,12,02,14.80
2006,04,28,12,03,14.90
2006,04,28,12,04,14.90
2006,04,28,12,05,14.90
2006,04,28,12,06,14.90
2006,04,28,12,07,14.90
2006,04,28,12,08,15.00
2006,04,28,12,09,15.10
2006,04,28,12,10,15.20
2006,04,28,12,11,15.30
2006,04,28,12,12,15.30
2006,04,28,12,13,15.30
2006,04,28,12,14,15.30
2006,04,28,12,15,15.40
2006,04,28,12,16,15.40
2006,04,28,12,17,15.50
2006,04,28,12,18,15.50
2006,04,28,12,19,15.60
2006,04,28,12,20,15.50
2006,04,28,12,21,15.50
2006,04,28,12,22,15.50
2006,04,28,12,23,15.50
2006,04,28,12,24,15.60
2006,04,28,12,25,15.70
2006,04,28,12,26,15.70
2006,04,28,12,27,15.80
2006,04,28,12,28,15.80
2006,04,28,12,29,15.80
2006,04,28,12,30,15.80
2006,04,28,12,31,15.80
2006,04,28,12,32,15.80
2006,04,28,12,33,15.80
2006,04,28,12,34,15.80
2006,04,28,12,35,15.80
2006,04,28,12,36,15.80
2006,04,28,12,37,15.80
2006,04,28,12,38,15.70
2006,04,28,12,39,15.60
2006,04,28,12,40,15.60
2006,04,28,12,41,15.50
2006,04,28,12,42,15.60
2006,04,28,12,43,15.60
2006,04,28,12,44,15.70
2006,04,28,12,45,15.80
2006,04,28,12,46,15.80
2006,04,28,12,47,15.80
2006,04,28,12,48,15.80
2006,04,28,12,49,15.90
2006,04,28,12,50,16.00
2006,04,28,12,51,16.10
2006,04,28,12,52,16.20
2006,04,28,12,53,16.30
2006,04,28,12,54,16.30
2006,04,28,12,55,16.30
2006,04,28,12,56,16.20
2006,04,28,12,57,16.00
2006,04,28,12,58,15.90
2006,04,28,12,59,15.80
2006,04,28,13,00,15.60
2006,04,28,13,01,15.40
2006,04,28,13,02,15.20
2006,04,28,13,03,15.00
2006,04,28,13,04,14.90
2006,04,28,13,05,14.80
2006,04,28,13,06,14.80
2006,04,28,13,07,14.80
2006,04,28,13,08,14.80
2006,04,28,13,09,14.80
2006,04,28,13,10,14.80
2006,04,28,13,11,14.80
2006,04,28,13,12,14.80
2006,04,28,13,13,14.80
2006,04,28,13,14,14.90
2006,04,28,13,15,15.00
2006,04,28,13,16,15.00
2006,04,28,13,17,15.00
2006,04,28,13,18,15.00
2006,04,28,13,19,15.00
2006,04,28,13,20,15.10
2006,04,28,13,21,15.10
2006,04,28,13,22,15.10
2006,04,28,13,23,15.10
2006,04,28,13,24,15.20
2006,04,28,13,25,15.20
2006,04,28,13,26,15.20
2006,04,28,13,27,15.20
2006,04,28,13,28,15.30
2006,04,28,13,29,15.30
2006,04,28,13,30,15.40
2006,04,28,13,31,15.50
2006,04,28,13,32,15.60
2006,04,28,13,33,15.70
2006,04,28,13,34,15.90
2006,04,28,13,35,16.20
2006,04,28,13,36,16.40
2006,04,28,13,37,16.60
2006,04,28,13,38,16.90
2006,04,28,13,39,17.10
2006,04,28,13,40,17.30
2006,04,28,13,41,17.30
2006,04,28,13,42,17.30
2006,04,28,13,43,17.40
2006,04,28,13,44,17.40
2006,04,28,13,45,17.40
2006,04,28,13,46,17.30
2006,04,28,13,47,17.30
2006,04,28,13,48,17.30
2006,04,28,13,49,17.30
2006,04,28,13,50,17.30
2006,04,28,13,51,17.30
2006,04,28,13,52,17.20
2006,04,28,13,53,17.20
2006,04,28,13,54,17.20
2006,04,28,13,55,17.20
2006,04,28,13,56,17.20
2006,04,28,13,57,17.20
2006,04,28,13,58,17.20
2006,04,28,13,59,17.20
2006,04,28,14,00,17.20
2006,04,28,14,01,17.20
2006,04,28,14,02,17.20
2006,04,28,14,03,17.10
2006,04,28,14,04,17.10
2006,04,28,14,05,17.10
2006,04,28,14,06,17.10
2006,04,28,14,07,17.10
2006,04,28,14,08,17.10
2006,04,28,14,09,17.10
2006,04,28,14,10,17.20
2006,04,28,14,11,17.10
2006,04,28,14,12,17.10
2006,04,28,14,13,17.10
2006,04,28,14,14,17.10
2006,04,28,14,15,17.20
2006,04,28,14,16,17.20
2006,04,28,14,17,17.20
2006,04,28,14,18,17.20
2006,04,28,14,19,17.20
2006,04,28,14,20,17.20
2006,04,28,14,21,17.10
2006,04,28,14,22,17.00
2006,04,28,14,23,17.00
2006,04,28,14,24,17.00
2006,04,28,14,25,17.00
2006,04,28,14,26,17.00
2006,04,28,14,27,17.10
2006,04,28,14,28,17.20
2006,04,28,14,29,17.20
2006,04,28,14,30,17.20
2006,04,28,14,31,17.20
2006,04,28,14,32,17.30
2006,04,28,14,33,17.40
2006,04,28,14,34,17.40
2006,04,28,14,35,17.30
2006,04,28,14,36,17.40
2006,04,28,14,37,17.30
2006,04,28,14,38,17.30
2006,04,28,14,39,17.30
2006,04,28,14,40,17.30
2006,04,28,14,41,17.20
2006,04,28,14,42,17.30
2006,04,28,14,43,17.40
2006,04,28,14,44,17.50
2006,04,28,14,45,17.50
2006,04,28,14,46,17.60
2006,04,28,14,47,17.60
2006,04,28,14,48,17.60
2006,04,28,14,49,17.60
2006,04,28,14,50,17.60
2006,04,28,14,51,17.50
2006,04,28,14,52,17.40
2006,04,28,14,53,17.50
2006,04,28,14,54,17.50
2006,04,28,14,55,17.40
2006,04,28,14,56,17.50
2006,04,28,14,57,17.50
2006,04,28,14,58,17.50
2006,04,28,14,59,17.60
2006,04,28,15,00,17.60
2006,04,28,15,01,17.60
2006,04,28,15,02,17.60
2006,04,28,15,03,17.60
2006,04,28,15,04,17.60
2006,04,28,15,05,17.50
2006,04,28,15,06,17.40
2006,04,28,15,07,17.30
2006,04,28,15,08,17.30
2006,04,28,15,09,17.20
2006,04,28,15,10,17.10
2006,04,28,15,11,17.10
2006,04,28,15,12,17.10
2006,04,28,15,13,17.10
2006,04,28,15,14,17.10
2006,04,28,15,15,17.10
2006,04,28,15,16,17.10
2006,04,28,15,17,17.20
2006,04,28,15,18,17.20
2006,04,28,15,19,17.20
2006,04,28,15,20,17.20
2006,04,28,15,21,17.30
2006,04,28,15,22,17.30
2006,04,28,15,23,17.30
2006,04,28,15,24,17.30
2006,04,28,15,25,17.20
2006,04,28,15,26,17.20
2006,04,28,15,27,17.30
2006,04,28,15,28,17.30
2006,04,28,15,29,17.30
2006,04,28,15,30,17.30
2006,04,28,15,31,17.30
2006,04,28,15,32,17.30
2006,04,28,15,33,17.30
2006,04,28,15,34,17.30
2006,04,28,15,35,17.30
2006,04,28,15,36,17.30
2006,04,28,15,37,17.20
2006,04,28,15,38,17.20
2006,04,28,15,39,17.10
2006,04,28,15,40,17.10
2006,04,28,15,41,17.10
2006,04,28,15,42,17.20
2006,04,28,15,43,17.20
2006,04,28,15,44,17.20
2006,04,28,15,45,17.10
2006,04,28,15,46,17.00
2006,04,28,15,47,16.90
2006,04,28,15,48,16.80
2006,04,28,15,49,16.70
2006,04,28,15,50,16.60
2006,04,28,15,51,16.60
2006,04,28,15,52,16.50
2006,04,28,15,53,16.40
2006,04,28,15,54,16.30
2006,04,28,15,55,16.30
2006,04,28,15,56,16.30
2006,04,28,15,57,16.30
2006,04,28,15,58,16.40
2006,04,28,15,59,16.40
2006,04,28,16,00,16.40
2006,04,28,16,01,16.40
2006,04,28,16,02,16.40
2006,04,28,16,03,16.40
2006,04,28,16,04,16.40
2006,04,28,16,05,16.40
2006,04,28,16,06,16.40
2006,04,28,16,07,16.40
2006,04,28,16,08,16.40
2006,04,28,16,09,16.30
2006,04,28,16,10,16.30
2006,04,28,16,11,16.20
2006,04,28,16,12,16.20
2006,04,28,16,13,16.20
2006,04,28,16,14,16.20
2006,04,28,16,15,16.20
2006,04,28,16,16,16.20
2006,04,28,16,17,16.20
2006,04,28,16,18,16.20
2006,04,28,16,19,16.30
2006,04,28,16,20,16.30
2006,04,28,16,21,16.30
2006,04,28,16,22,16.30
2006,04,28,16,23,16.30
2006,04,28,16,24,16.20
2006,04,28,16,25,16.20
2006,04,28,16,26,16.20
2006,04,28,16,27,16.20
2006,04,28,16,28,16.20
2006,04,28,16,29,16.20
2006,04,28,16,30,16.10
2006,04,28,16,31,16.00
2006,04,28,16,32,15.90
2006,04,28,16,33,15.80
2006,04,28,16,34,15.80
2006,04,28,16,35,15.80
2006,04,28,16,36,15.80
2006,04,28,16,37,15.70
2006,04,28,16,38,15.60
2006,04,28,16,39,15.60
2006,04,28,16,40,15.50
2006,04,28,16,41,15.40
2006,04,28,16,42,15.40
2006,04,28,16,43,15.30
2006,04,28,16,44,15.30
2006,04,28,16,45,15.30
2006,04,28,16,46,15.30
2006,04,28,16,47,15.30
2006,04,28,16,48,15.30
2006,04,28,16,49,15.30
2006,04,28,16,50,15.30
2006,04,28,16,51,15.30
2006,04,28,16,52,15.40
2006,04,28,16,53,15.40
2006,04,28,16,54,15.50
2006,04,28,16,55,15.50
2006,04,28,16,56,15.50
2006,04,28,16,57,15.50
2006,04,28,16,58,15.60
2006,04,28,16,59,15.70
2006,04,28,17,00,15.70
2006,04,28,17,01,15.80
2006,04,28,17,02,15.80
2006,04,28,17,03,15.80
2006,04,28,17,04,15.90
2006,04,28,17,05,15.90
2006,04,28,17,06,16.00
2006,04,28,17,07,16.10
2006,04,28,17,08,16.00
2006,04,28,17,09,15.80
2006,04,28,17,10,15.60
2006,04,28,17,11,15.40
2006,04,28,17,12,15.30
2006,04,28,17,13,15.30
2006,04,28,17,14,15.20
2006,04,28,17,15,15.20
2006,04,28,17,16,15.10
2006,04,28,17,17,15.10
2006,04,28,17,18,15.10
2006,04,28,17,19,15.10
2006,04,28,17,20,15.10
2006,04,28,17,21,15.10
2006,04,28,17,22,15.10
2006,04,28,17,23,15.10
2006,04,28,17,24,15.10
2006,04,28,17,25,15.10
2006,04,28,17,26,15.10
2006,04,28,17,27,15.10
2006,04,28,17,28,15.10
2006,04,28,17,29,15.10
2006,04,28,17,30,15.10
2006,04,28,17,31,15.20
2006,04,28,17,32,15.20
2006,04,28,17,33,15.20
2006,04,28,17,34,15.20
2006,04,28,17,35,15.20
2006,04,28,17,36,15.20
2006,04,28,17,37,15.30
2006,04,28,17,38,15.20
2006,04,28,17,39,15.20